20040126,000005,1745827,36.824333,-123.698333,NaN,12.954,32.499,38.289,  NaN,0.0, NaN, NaN, NaN, NaN, NaN,345.726,11.30,1021.64,72.70,NaN,303.0,NaN,12.2,NaN,341.4,NaN,10.5,NaN,NaN, NaN,NaN,64.0,NaN,NaN,NaN,2,9.0,000004,   NaN,61.2,     NaN,      NaN,NaN,5.3,NaN,12.957, NaN,NaN,NaN, NaN, NaN

20040126,000035,1745857,36.824833,-123.697000,NaN,12.960,32.496,38.291,  NaN,0.0, NaN, NaN, NaN, NaN, NaN,346.007,11.20,1021.58,72.20,NaN,291.0,NaN,12.7,NaN,332.5,NaN,11.8,NaN,NaN, NaN,NaN,66.0,NaN,NaN,NaN,2,8.9,000034,   NaN,62.1,     NaN,      NaN,NaN,5.3,NaN,12.963, NaN,NaN,NaN, NaN, NaN

20040126,000105,1745887,36.825333,-123.695667,NaN,12.962,32.496,38.293,  NaN,0.0, NaN, NaN, NaN, NaN, NaN,346.068,11.30,1021.44,73.20,NaN,298.0,NaN,13.5,NaN,340.1,NaN,12.1,NaN,NaN, NaN,NaN,68.0,NaN,NaN,NaN,2,9.1,000064,   NaN,62.1,     NaN,      NaN,NaN,5.5,NaN,12.965, NaN,NaN,NaN, NaN, NaN

20040126,000135,1745917,36.826000,-123.694167,NaN,12.963,32.496,38.294,  NaN,0.0, NaN, NaN, NaN, NaN, NaN,346.106,11.20,1021.64,71.10,NaN,303.0,NaN,12.7,NaN,343.4,NaN,10.9,NaN,NaN, NaN,NaN,58.0,NaN,NaN,NaN,2,8.9,000094,   NaN,61.3,     NaN,      NaN,NaN,5.3,NaN,12.966, NaN,NaN,NaN, NaN, NaN

20040126,000205,1745947,36.826500,-123.692833,NaN,12.968,32.495,38.298,  NaN,0.0, NaN, NaN, NaN, NaN, NaN,346.271,11.20,1021.42,69.60,NaN,305.0,NaN,13.8,NaN,346.1,NaN,11.8,NaN,NaN, NaN,NaN,61.0,NaN,NaN,NaN,2,9.0,000124,   NaN,60.6,     NaN,      NaN,NaN,5.3,NaN,12.972, NaN,NaN,NaN, NaN, NaN

20040126,000235,1745977,36.827000,-123.691500,NaN,12.972,32.494,38.299,  NaN,0.0, NaN, NaN, NaN, NaN, NaN,346.446,11.20,1021.52,70.80,NaN,310.0,NaN,13.1,NaN,353.0,NaN,10.8,NaN,NaN, NaN,NaN,61.0,NaN,NaN,NaN,2,8.8,000154,   NaN,60.2,     NaN,      NaN,NaN,5.5,NaN,12.975, NaN,NaN,NaN, NaN, NaN

20040126,000305,1746007,36.827500,-123.690167,NaN,12.975,32.495,38.303,  NaN,0.0, NaN, NaN, NaN, NaN, NaN,346.445,11.20,1021.72,70.00,NaN,303.0,NaN,15.1,NaN,348.1,NaN,13.2,NaN,NaN, NaN,NaN,62.0,NaN,NaN,NaN,2,8.7,000184,   NaN,61.6,     NaN,      NaN,NaN,5.5,NaN,12.978, NaN,NaN,NaN, NaN, NaN

20040126,000335,1746037,36.828167,-123.688833,NaN,12.980,32.495,38.307,  NaN,0.0, NaN, NaN, NaN, NaN, NaN,346.518,11.30,1021.60,70.50,NaN,303.0,NaN,15.6,NaN,343.9,NaN,13.6,NaN,NaN, NaN,NaN,60.0,NaN,NaN,NaN,2,8.9,000214,   NaN,57.7,     NaN,      NaN,NaN,5.4,NaN,12.983, NaN,NaN,NaN, NaN, NaN

20040126,000405,1746067,36.828667,-123.687500,NaN,12.981,32.495,38.309,  NaN,0.0, NaN, NaN, NaN, NaN, NaN,346.554,11.20,1021.71,70.50,NaN,296.0,NaN,11.5,NaN,332.8,NaN,10.3,NaN,NaN, NaN,NaN,67.0,NaN,NaN,NaN,2,8.7,000244,   NaN,59.8,     NaN,      NaN,NaN,5.2,NaN,12.984, NaN,NaN,NaN, NaN, NaN

20040126,000435,1746097,36.829333,-123.686167,NaN,12.984,32.495,38.312,  NaN,0.0, NaN, NaN, NaN, NaN, NaN,346.586,11.20,1021.61,70.40,NaN,302.0,NaN,14.4,NaN,343.5,NaN,12.6,NaN,NaN, NaN,NaN,55.0,NaN,NaN,NaN,2,9.0,000274,   NaN,61.3,     NaN,      NaN,NaN,5.7,NaN,12.987, NaN,NaN,NaN, NaN, NaN

20040126,000505,1746127,36.829833,-123.684833,NaN,12.987,32.494,38.313,  NaN,0.0, NaN, NaN, NaN, NaN, NaN,346.692,11.30,1021.59,72.80,NaN,295.0,NaN,11.3,NaN,329.4,NaN,10.2,NaN,NaN, NaN,NaN,65.0,NaN,NaN,NaN,2,9.0,000304,   NaN,58.4,     NaN,      NaN,NaN,5.6,NaN,12.990, NaN,NaN,NaN, NaN, NaN

20040126,000535,1746157,36.830333,-123.683500,NaN,12.988,32.495,38.315,  NaN,0.0, NaN, NaN, NaN, NaN, NaN,346.656,11.40,1021.67,73.60,NaN,308.0,NaN,14.0,NaN,351.5,NaN,11.7,NaN,NaN, NaN,NaN,60.0,NaN,NaN,NaN,2,9.0,000334,   NaN,62.1,     NaN,      NaN,NaN,5.5,NaN,12.991, NaN,NaN,NaN, NaN, NaN

20040126,000605,1746187,36.830833,-123.682000,NaN,12.991,32.494,38.317,  NaN,0.0, NaN, NaN, NaN, NaN, NaN,346.784,11.30,1021.52,72.70,NaN,286.0,NaN,12.9,NaN,334.6,NaN,12.5,NaN,NaN, NaN,NaN,72.0,NaN,NaN,NaN,2,9.0,000364,   NaN,70.8,     NaN,      NaN,NaN,5.6,NaN,12.994, NaN,NaN,NaN, NaN, NaN

20040126,000635,1746217,36.831333,-123.680667,NaN,12.994,32.493,38.319,  NaN,0.0, NaN, NaN, NaN, NaN, NaN,346.888,11.30,1021.51,73.30,NaN,296.0,NaN,11.8,NaN,333.1,NaN,10.7,NaN,NaN, NaN,NaN,64.0,NaN,NaN,NaN,2,8.8,000394,   NaN,59.5,     NaN,      NaN,NaN,5.4,NaN,12.997, NaN,NaN,NaN, NaN, NaN

20040126,000705,1746247,36.832000,-123.679333,NaN,12.996,32.493,38.321,  NaN,0.0, NaN, NaN, NaN, NaN, NaN,346.922,11.30,1021.56,73.10,NaN,310.0,NaN,12.1,NaN,349.5,NaN,9.8,NaN,NaN, NaN,NaN,63.0,NaN,NaN,NaN,2,8.9,000424,   NaN,62.0,     NaN,      NaN,NaN,5.5,NaN,12.999, NaN,NaN,NaN, NaN, NaN

20040126,000735,1746277,36.832500,-123.677833,NaN,12.999,32.491,38.321,  NaN,0.0, NaN, NaN, NaN, NaN, NaN,347.149,11.30,1021.54,70.90,NaN,304.0,NaN,16.1,NaN,351.0,NaN,14.0,NaN,NaN, NaN,NaN,57.0,NaN,NaN,NaN,2,8.9,000454,   NaN,61.9,     NaN,      NaN,NaN,5.5,NaN,13.002, NaN,NaN,NaN, NaN, NaN

20040126,000805,1746307,36.833000,-123.676500,NaN,13.001,32.492,38.324,  NaN,0.0, NaN, NaN, NaN, NaN, NaN,347.111,11.20,1021.59,69.70,NaN,305.0,NaN,11.9,NaN,342.7,NaN,10.0,NaN,NaN, NaN,NaN,61.0,NaN,NaN,NaN,2,9.2,000484,   NaN,60.1,     NaN,      NaN,NaN,5.5,NaN,13.004, NaN,NaN,NaN, NaN, NaN

20040126,000835,1746337,36.833500,-123.675167,NaN,13.003,32.493,38.326,  NaN,0.0, NaN, NaN, NaN, NaN, NaN,347.101,11.20,1021.63,72.20,NaN,303.0,NaN,11.1,NaN,337.0,NaN,9.4,NaN,NaN, NaN,NaN,64.0,NaN,NaN,NaN,2,8.8,000514,   NaN,57.8,     NaN,      NaN,NaN,5.3,NaN,13.006, NaN,NaN,NaN, NaN, NaN

20040126,000905,1746367,36.834167,-123.673833,NaN,13.007,32.492,38.329,  NaN,0.0, NaN, NaN, NaN, NaN, NaN,347.222,11.30,1021.46,71.70,NaN,358.0,NaN,15.8,NaN,57.1,NaN,11.2,NaN,NaN, NaN,NaN,61.0,NaN,NaN,NaN,2,9.1,000544,   NaN,59.4,     NaN,      NaN,NaN,5.5,NaN,13.010, NaN,NaN,NaN, NaN, NaN

20040126,000935,1746397,36.834833,-123.672333,NaN,13.010,32.493,38.333,  NaN,0.0, NaN, NaN, NaN, NaN, NaN,347.227,11.30,1021.58,72.30,NaN,358.0,NaN,13.1,NaN,55.9,NaN,8.5,NaN,NaN, NaN,NaN,56.0,NaN,NaN,NaN,2,8.9,000574,   NaN,60.2,     NaN,      NaN,NaN,5.1,NaN,13.013, NaN,NaN,NaN, NaN, NaN

20040126,001005,1746427,36.835333,-123.671000,NaN,13.011,32.493,38.334,  NaN,0.0, NaN, NaN, NaN, NaN, NaN,347.264,11.30,1021.58,72.90,NaN,301.0,NaN,12.7,NaN,341.4,NaN,11.0,NaN,NaN, NaN,NaN,63.0,NaN,NaN,NaN,2,8.9,000604,   NaN,62.5,     NaN,      NaN,NaN,5.5,NaN,13.015, NaN,NaN,NaN, NaN, NaN

20040126,001035,1746457,36.835833,-123.669667,NaN,13.014,32.491,38.335,  NaN,0.0, NaN, NaN, NaN, NaN, NaN,347.417,11.30,1021.70,73.80,NaN,300.0,NaN,14.3,NaN,337.6,NaN,12.6,NaN,NaN, NaN,NaN,57.0,NaN,NaN,NaN,2,9.2,000634,   NaN,56.3,     NaN,      NaN,NaN,5.2,NaN,13.018, NaN,NaN,NaN, NaN, NaN

20040126,001105,1746487,36.836500,-123.668333,NaN,13.018,32.491,38.338,  NaN,0.0, NaN, NaN, NaN, NaN, NaN,347.492,11.40,1021.44,74.70,NaN,294.0,NaN,14.2,NaN,339.2,NaN,13.0,NaN,NaN, NaN,NaN,60.0,NaN,NaN,NaN,2,9.3,000664,   NaN,64.7,     NaN,      NaN,NaN,5.3,NaN,13.021, NaN,NaN,NaN, NaN, NaN

20040126,001135,1746517,36.837000,-123.666833,NaN,13.020,32.490,38.340,  NaN,0.0, NaN, NaN, NaN, NaN, NaN,347.596,11.40,1021.45,74.70,NaN,301.0,NaN,13.1,NaN,345.7,NaN,11.4,NaN,NaN, NaN,NaN,66.0,NaN,NaN,NaN,2,9.2,000694,   NaN,65.3,     NaN,      NaN,NaN,5.5,NaN,13.023, NaN,NaN,NaN, NaN, NaN

20040126,001205,1746547,36.837500,-123.665333,NaN,13.023,32.490,38.342,  NaN,0.0, NaN, NaN, NaN, NaN, NaN,347.653,11.30,1021.35,73.20,NaN,307.0,NaN,13.2,NaN,350.5,NaN,11.1,NaN,NaN, NaN,NaN,65.0,NaN,NaN,NaN,2,9.0,000724,   NaN,62.2,     NaN,      NaN,NaN,5.5,NaN,13.026, NaN,NaN,NaN, NaN, NaN

20040126,001235,1746577,36.838167,-123.663833,NaN,13.024,32.491,38.344,  NaN,0.0, NaN, NaN, NaN, NaN, NaN,347.646,11.40,1021.35,74.60,NaN,310.0,NaN,12.0,NaN,346.4,NaN,9.7,NaN,NaN, NaN,NaN,62.0,NaN,NaN,NaN,2,9.2,000754,   NaN,58.6,     NaN,      NaN,NaN,5.6,NaN,13.028, NaN,NaN,NaN, NaN, NaN

20040126,001305,1746607,36.838667,-123.662500,NaN,13.027,32.491,38.346,  NaN,0.0, NaN, NaN, NaN, NaN, NaN,347.681,11.40,1021.39,74.00,NaN,306.0,NaN,13.9,NaN,349.0,NaN,11.8,NaN,NaN, NaN,NaN,66.0,NaN,NaN,NaN,2,8.9,000784,   NaN,60.6,     NaN,      NaN,NaN,5.5,NaN,13.030, NaN,NaN,NaN, NaN, NaN

20040126,001335,1746637,36.839167,-123.661167,NaN,13.028,32.495,38.351,  NaN,0.0, NaN, NaN, NaN, NaN, NaN,347.428,11.30,1021.49,72.00,NaN,301.0,NaN,13.6,NaN,343.8,NaN,11.9,NaN,NaN, NaN,NaN,66.0,NaN,NaN,NaN,2,9.1,000814,   NaN,63.4,     NaN,      NaN,NaN,5.5,NaN,13.031, NaN,NaN,NaN, NaN, NaN

20040126,001405,1746667,36.839833,-123.659833,NaN,13.031,32.495,38.354,  NaN,0.0, NaN, NaN, NaN, NaN, NaN,347.483,11.30,1021.51,73.10,NaN,309.0,NaN,11.6,NaN,347.0,NaN,9.4,NaN,NaN, NaN,NaN,66.0,NaN,NaN,NaN,2,8.9,000844,   NaN,60.3,     NaN,      NaN,NaN,5.5,NaN,13.034, NaN,NaN,NaN, NaN, NaN

20040126,001435,1746697,36.840333,-123.658333,NaN,13.032,32.495,38.355,  NaN,0.0, NaN, NaN, NaN, NaN, NaN,347.500,11.30,1021.31,73.70,NaN,306.0,NaN,12.1,NaN,345.9,NaN,10.1,NaN,NaN, NaN,NaN,69.0,NaN,NaN,NaN,2,9.2,000874,   NaN,62.8,     NaN,      NaN,NaN,5.5,NaN,13.035, NaN,NaN,NaN, NaN, NaN

20040126,001505,1746727,36.840833,-123.657000,NaN,13.035,32.496,38.359,  NaN,0.0, NaN, NaN, NaN, NaN, NaN,347.436,11.20,1021.41,72.80,NaN,301.0,NaN,13.4,NaN,342.0,NaN,11.7,NaN,NaN, NaN,NaN,65.0,NaN,NaN,NaN,2,9.0,000904,   NaN,61.0,     NaN,      NaN,NaN,5.5,NaN,13.038, NaN,NaN,NaN, NaN, NaN

20040126,001535,1746757,36.841333,-123.655667,NaN,13.037,32.497,38.362,  NaN,0.0, NaN, NaN, NaN, NaN, NaN,347.442,11.20,1021.51,73.20,NaN,305.0,NaN,12.7,NaN,345.5,NaN,10.7,NaN,NaN, NaN,NaN,64.0,NaN,NaN,NaN,2,9.0,000934,   NaN,60.7,     NaN,      NaN,NaN,5.6,NaN,13.040, NaN,NaN,NaN, NaN, NaN

20040126,001605,1746787,36.842000,-123.654167,NaN,13.039,32.498,38.365,  NaN,0.0, NaN, NaN, NaN, NaN, NaN,347.359,11.20,1021.45,73.80,NaN,298.0,NaN,12.2,NaN,329.3,NaN,10.9,NaN,NaN, NaN,NaN,61.0,NaN,NaN,NaN,2,9.0,000964,   NaN,53.7,     NaN,      NaN,NaN,5.3,NaN,13.042, NaN,NaN,NaN, NaN, NaN

20040126,001635,1746817,36.842500,-123.652833,NaN,13.041,32.498,38.367,  NaN,0.0, NaN, NaN, NaN, NaN, NaN,347.415,11.30,1021.47,76.10,NaN,287.0,NaN,11.6,NaN,326.6,NaN,11.2,NaN,NaN, NaN,NaN,65.0,NaN,NaN,NaN,2,9.3,000994,   NaN,65.0,     NaN,      NaN,NaN,5.6,NaN,13.044, NaN,NaN,NaN, NaN, NaN

20040126,001705,1746847,36.843000,-123.651333,NaN,13.043,32.499,38.369,  NaN,0.0, NaN, NaN, NaN, NaN, NaN,347.383,11.40,1021.31,76.00,NaN,358.0,NaN,14.3,NaN,62.6,NaN,9.3,NaN,NaN, NaN,NaN,67.0,NaN,NaN,NaN,2,9.9,001024,   NaN,65.8,     NaN,      NaN,NaN,5.4,NaN,13.046, NaN,NaN,NaN, NaN, NaN

20040126,001735,1746877,36.843500,-123.650000,NaN,13.043,32.500,38.371,  NaN,0.0, NaN, NaN, NaN, NaN, NaN,347.307,11.30,1021.35,74.10,NaN,300.0,NaN,13.0,NaN,339.5,NaN,11.4,NaN,NaN, NaN,NaN,63.0,NaN,NaN,NaN,2,9.3,001054,   NaN,58.9,     NaN,      NaN,NaN,5.4,NaN,13.047, NaN,NaN,NaN, NaN, NaN

20040126,001805,1746907,36.844167,-123.648500,NaN,13.045,32.500,38.373,  NaN,0.0, NaN, NaN, NaN, NaN, NaN,347.320,11.30,1021.52,73.20,NaN,304.0,NaN,12.8,NaN,344.6,NaN,10.9,NaN,NaN, NaN,NaN,63.0,NaN,NaN,NaN,2,9.0,001084,   NaN,60.9,     NaN,      NaN,NaN,5.5,NaN,13.048, NaN,NaN,NaN, NaN, NaN

20040126,001835,1746937,36.844667,-123.647000,NaN,13.046,32.501,38.375,  NaN,0.0, NaN, NaN, NaN, NaN, NaN,347.312,11.20,1021.38,72.40,NaN,293.0,NaN,13.0,NaN,332.4,NaN,12.0,NaN,NaN, NaN,NaN,68.0,NaN,NaN,NaN,2,9.5,001114,   NaN,61.0,     NaN,      NaN,NaN,5.5,NaN,13.050, NaN,NaN,NaN, NaN, NaN

20040126,001905,1746967,36.845333,-123.645667,NaN,13.046,32.501,38.375,  NaN,0.0, NaN, NaN, NaN, NaN, NaN,347.288,11.20,1021.23,72.80,NaN,302.0,NaN,12.2,NaN,338.1,NaN,10.5,NaN,NaN, NaN,NaN,64.0,NaN,NaN,NaN,2,8.8,001144,   NaN,57.3,     NaN,      NaN,NaN,5.5,NaN,13.050, NaN,NaN,NaN, NaN, NaN

20040126,001935,1746997,36.845833,-123.644333,NaN,13.046,32.501,38.375,  NaN,0.0, NaN, NaN, NaN, NaN, NaN,347.288,11.30,1021.57,73.80,NaN,297.0,NaN,11.9,NaN,335.0,NaN,10.7,NaN,NaN, NaN,NaN,63.0,NaN,NaN,NaN,2,9.1,001174,   NaN,61.7,     NaN,      NaN,NaN,5.4,NaN,13.050, NaN,NaN,NaN, NaN, NaN

20040126,002005,1747027,36.846333,-123.642833,NaN,13.048,32.499,38.374,  NaN,0.0, NaN, NaN, NaN, NaN, NaN,347.478,11.30,1021.52,74.70,NaN,293.0,NaN,12.1,NaN,332.2,NaN,11.2,NaN,NaN, NaN,NaN,65.0,NaN,NaN,NaN,2,9.1,001204,   NaN,61.9,     NaN,      NaN,NaN,5.4,NaN,13.051, NaN,NaN,NaN, NaN, NaN

20040126,002035,1747057,36.847000,-123.641500,NaN,13.049,32.500,38.377,  NaN,0.0, NaN, NaN, NaN, NaN, NaN,347.417,11.40,1021.53,75.20,NaN,309.0,NaN,12.4,NaN,347.4,NaN,10.1,NaN,NaN, NaN,NaN,63.0,NaN,NaN,NaN,2,9.3,001234,   NaN,59.1,     NaN,      NaN,NaN,5.5,NaN,13.053, NaN,NaN,NaN, NaN, NaN

20040126,002105,1747087,36.847500,-123.640000,NaN,13.050,32.501,38.378,  NaN,0.0, NaN, NaN, NaN, NaN, NaN,347.364,11.30,1021.54,73.30,NaN,358.0,NaN,14.2,NaN,52.6,NaN,9.3,NaN,NaN, NaN,NaN,64.0,NaN,NaN,NaN,2,9.5,001264,   NaN,56.1,     NaN,      NaN,NaN,5.3,NaN,13.053, NaN,NaN,NaN, NaN, NaN

20040126,002135,1747117,36.848167,-123.638667,NaN,13.050,32.502,38.379,  NaN,0.0, NaN, NaN, NaN, NaN, NaN,347.312,11.40,1021.59,75.70,NaN,306.0,NaN,11.4,NaN,339.4,NaN,9.4,NaN,NaN, NaN,NaN,59.0,NaN,NaN,NaN,2,9.4,001294,   NaN,58.3,     NaN,      NaN,NaN,5.2,NaN,13.054, NaN,NaN,NaN, NaN, NaN

20040126,002205,1747147,36.848667,-123.637333,NaN,13.052,32.503,38.382,  NaN,0.0, NaN, NaN, NaN, NaN, NaN,347.297,11.30,1021.47,72.90,NaN,308.0,NaN,13.3,NaN,344.2,NaN,11.6,NaN,NaN, NaN,NaN,61.0,NaN,NaN,NaN,2,9.2,001324,   NaN,57.5,     NaN,      NaN,NaN,5.4,NaN,13.056, NaN,NaN,NaN, NaN, NaN

20040126,002235,1747177,36.849333,-123.636000,NaN,13.051,32.505,38.383,  NaN,0.0, NaN, NaN, NaN, NaN, NaN,347.065,11.30,1021.66,76.10,NaN,299.0,NaN,11.1,NaN,338.9,NaN,7.6,NaN,NaN, NaN,NaN,67.0,NaN,NaN,NaN,2,9.4,001354,   NaN,59.4,     NaN,      NaN,NaN,5.5,NaN,13.054, NaN,NaN,NaN, NaN, NaN

20040126,002305,1747207,36.850000,-123.634500,NaN,13.050,32.506,38.383,  NaN,0.0, NaN, NaN, NaN, NaN, NaN,346.976,11.20,1021.43,73.20,NaN,299.0,NaN,14.3,NaN,338.6,NaN,11.6,NaN,NaN, NaN,NaN,64.0,NaN,NaN,NaN,2,9.2,001384,   NaN,58.0,     NaN,      NaN,NaN,5.2,NaN,13.053, NaN,NaN,NaN, NaN, NaN

20040126,002335,1747237,36.850500,-123.633167,NaN,13.052,32.505,38.383,  NaN,0.0, NaN, NaN, NaN, NaN, NaN,347.131,11.30,1021.65,75.40,NaN,298.0,NaN,12.4,NaN,337.6,NaN,11.5,NaN,NaN, NaN,NaN,58.0,NaN,NaN,NaN,2,8.9,001414,   NaN,59.2,     NaN,      NaN,NaN,5.5,NaN,13.055, NaN,NaN,NaN, NaN, NaN

20040126,002405,1747267,36.851167,-123.631833,NaN,13.049,32.506,38.383,  NaN,0.0, NaN, NaN, NaN, NaN, NaN,347.001,11.30,1021.49,75.10,NaN,308.0,NaN,13.8,NaN,358.5,NaN,11.9,NaN,NaN, NaN,NaN,54.0,NaN,NaN,NaN,2,9.3,001444,   NaN,58.4,     NaN,      NaN,NaN,5.5,NaN,13.053, NaN,NaN,NaN, NaN, NaN

20040126,002435,1747297,36.851667,-123.630333,NaN,13.049,32.506,38.383,  NaN,0.0, NaN, NaN, NaN, NaN, NaN,346.955,11.20,1021.25,73.40,NaN,312.0,NaN,11.9,NaN,348.3,NaN,9.1,NaN,NaN, NaN,NaN,65.0,NaN,NaN,NaN,2,9.0,001474,   NaN,58.9,     NaN,      NaN,NaN,5.3,NaN,13.052, NaN,NaN,NaN, NaN, NaN

20040126,002505,1747327,36.852333,-123.629000,NaN,13.046,32.507,38.381,  NaN,0.0, NaN, NaN, NaN, NaN, NaN,346.853,11.20,1021.69,73.30,NaN,312.0,NaN,14.4,NaN,347.4,NaN,12.5,NaN,NaN, NaN,NaN,59.0,NaN,NaN,NaN,2,9.1,001504,   NaN,57.1,     NaN,      NaN,NaN,5.1,NaN,13.049, NaN,NaN,NaN, NaN, NaN

20040126,002535,1747357,36.852833,-123.627667,NaN,13.046,32.507,38.380,  NaN,0.0, NaN, NaN, NaN, NaN, NaN,346.876,11.20,1021.62,73.60,NaN,299.0,NaN,12.8,NaN,338.8,NaN,10.2,NaN,NaN, NaN,NaN,66.0,NaN,NaN,NaN,2,9.4,001534,   NaN,60.1,     NaN,      NaN,NaN,5.4,NaN,13.049, NaN,NaN,NaN, NaN, NaN

20040126,002605,1747387,36.853333,-123.626167,NaN,13.044,32.509,38.381,  NaN,0.0, NaN, NaN, NaN, NaN, NaN,346.670,11.20,1021.69,72.70,NaN,311.0,NaN,15.3,NaN,347.7,NaN,13.5,NaN,NaN, NaN,NaN,61.0,NaN,NaN,NaN,2,9.2,001564,   NaN,61.1,     NaN,      NaN,NaN,5.7,NaN,13.047, NaN,NaN,NaN, NaN, NaN

20040126,002635,1747417,36.854000,-123.624833,NaN,13.044,32.509,38.381,  NaN,0.0, NaN, NaN, NaN, NaN, NaN,346.691,11.20,1021.64,72.80,NaN,305.0,NaN,13.1,NaN,340.1,NaN,9.8,NaN,NaN, NaN,NaN,67.0,NaN,NaN,NaN,2,9.6,001594,   NaN,53.8,     NaN,      NaN,NaN,5.5,NaN,13.048, NaN,NaN,NaN, NaN, NaN

20040126,002705,1747447,36.854667,-123.623500,NaN,13.043,32.511,38.382,  NaN,0.0, NaN, NaN, NaN, NaN, NaN,346.505,11.20,1021.47,72.80,NaN,304.0,NaN,13.2,NaN,344.4,NaN,11.2,NaN,NaN, NaN,NaN,62.0,NaN,NaN,NaN,2,9.0,001624,   NaN,58.0,     NaN,      NaN,NaN,5.4,NaN,13.046, NaN,NaN,NaN, NaN, NaN

20040126,002735,1747477,36.855167,-123.622167,NaN,13.043,32.513,38.384,  NaN,0.0, NaN, NaN, NaN, NaN, NaN,346.313,11.20,1021.68,73.70,NaN,296.0,NaN,14.0,NaN,336.6,NaN,11.0,NaN,NaN, NaN,NaN,72.0,NaN,NaN,NaN,2,9.0,001654,   NaN,62.8,     NaN,      NaN,NaN,5.2,NaN,13.046, NaN,NaN,NaN, NaN, NaN

20040126,002805,1747507,36.855833,-123.620667,NaN,13.043,32.516,38.387,  NaN,0.0, NaN, NaN, NaN, NaN, NaN,346.166,11.30,1021.60,72.30,NaN,309.0,NaN,15.8,NaN,347.5,NaN,13.6,NaN,NaN, NaN,NaN,55.0,NaN,NaN,NaN,2,9.1,001684,   NaN,56.0,     NaN,      NaN,NaN,5.4,NaN,13.046, NaN,NaN,NaN, NaN, NaN

20040126,002835,1747537,36.856333,-123.619333,NaN,13.040,32.519,38.388,  NaN,0.0, NaN, NaN, NaN, NaN, NaN,345.820,11.20,1021.74,71.80,NaN,303.0,NaN,15.3,NaN,340.5,NaN,13.0,NaN,NaN, NaN,NaN,58.0,NaN,NaN,NaN,2,9.1,001714,   NaN,54.8,     NaN,      NaN,NaN,5.4,NaN,13.043, NaN,NaN,NaN, NaN, NaN

20040126,002905,1747567,36.857000,-123.618000,NaN,13.034,32.523,38.386,  NaN,0.0, NaN, NaN, NaN, NaN, NaN,345.447,11.20,1021.57,71.90,NaN,303.0,NaN,13.3,NaN,340.1,NaN,11.2,NaN,NaN, NaN,NaN,63.0,NaN,NaN,NaN,2,9.4,001744,   NaN,59.2,     NaN,      NaN,NaN,5.3,NaN,13.037, NaN,NaN,NaN, NaN, NaN

20040126,002935,1747597,36.857500,-123.616500,NaN,13.035,32.522,38.386,  NaN,0.0, NaN, NaN, NaN, NaN, NaN,345.537,11.20,1021.51,73.10,NaN,304.0,NaN,14.0,NaN,342.5,NaN,13.0,NaN,NaN, NaN,NaN,59.0,NaN,NaN,NaN,2,9.3,001774,   NaN,57.0,     NaN,      NaN,NaN,5.5,NaN,13.038, NaN,NaN,NaN, NaN, NaN

20040126,003005,1747627,36.858167,-123.615167,NaN,13.036,32.523,38.389,  NaN,0.0, NaN, NaN, NaN, NaN, NaN,345.452,11.20,1021.63,72.00,NaN,298.0,NaN,12.0,NaN,335.1,NaN,10.6,NaN,NaN, NaN,NaN,69.0,NaN,NaN,NaN,2,9.3,001804,   NaN,61.3,     NaN,      NaN,NaN,5.5,NaN,13.039, NaN,NaN,NaN, NaN, NaN

20040126,003035,1747657,36.858667,-123.613667,NaN,13.033,32.526,38.389,  NaN,0.0, NaN, NaN, NaN, NaN, NaN,345.160,11.30,1021.52,72.20,NaN,304.0,NaN,14.8,NaN,329.5,NaN,12.2,NaN,NaN, NaN,NaN,59.0,NaN,NaN,NaN,2,9.3,001834,   NaN,56.5,     NaN,      NaN,NaN,5.2,NaN,13.036, NaN,NaN,NaN, NaN, NaN

20040126,003105,1747687,36.859333,-123.612333,NaN,13.032,32.529,38.391,  NaN,0.0, NaN, NaN, NaN, NaN, NaN,344.969,11.20,1021.82,72.30,NaN,291.0,NaN,12.9,NaN,326.2,NaN,10.9,NaN,NaN, NaN,NaN,65.0,NaN,NaN,NaN,2,9.4,001864,   NaN,58.5,     NaN,      NaN,NaN,5.3,NaN,13.035, NaN,NaN,NaN, NaN, NaN

20040126,003135,1747717,36.859833,-123.610833,NaN,13.032,32.530,38.393,  NaN,0.0, NaN, NaN, NaN, NaN, NaN,344.872,11.20,1021.63,71.90,NaN,304.0,NaN,12.9,NaN,340.3,NaN,12.1,NaN,NaN, NaN,NaN,59.0,NaN,NaN,NaN,2,9.4,001894,   NaN,59.4,     NaN,      NaN,NaN,5.4,NaN,13.035, NaN,NaN,NaN, NaN, NaN

20040126,003205,1747747,36.860500,-123.609333,NaN,13.029,32.533,38.393,  NaN,0.0, NaN, NaN, NaN, NaN, NaN,344.621,11.30,1021.74,72.40,NaN,306.0,NaN,13.2,NaN,344.9,NaN,11.1,NaN,NaN, NaN,NaN,63.0,NaN,NaN,NaN,2,9.2,001924,   NaN,59.9,     NaN,      NaN,NaN,5.4,NaN,13.032, NaN,NaN,NaN, NaN, NaN

20040126,003235,1747777,36.861167,-123.608000,NaN,13.017,32.537,38.386,  NaN,0.0, NaN, NaN, NaN, NaN, NaN,344.111,11.20,1021.84,71.70,NaN,305.0,NaN,14.9,NaN,333.8,NaN,12.0,NaN,NaN, NaN,NaN,55.0,NaN,NaN,NaN,2,9.6,001954,   NaN,54.2,     NaN,      NaN,NaN,5.7,NaN,13.020, NaN,NaN,NaN, NaN, NaN

20040126,003305,1747807,36.861667,-123.606667,NaN,13.003,32.539,38.376,  NaN,0.0, NaN, NaN, NaN, NaN, NaN,343.683,11.20,1021.46,71.30,NaN,304.0,NaN,14.0,NaN,344.3,NaN,11.9,NaN,NaN, NaN,NaN,53.0,NaN,NaN,NaN,2,9.4,001984,   NaN,55.1,     NaN,      NaN,NaN,5.3,NaN,13.007, NaN,NaN,NaN, NaN, NaN

20040126,003335,1747837,36.862333,-123.605167,NaN,12.988,32.541,38.364,  NaN,0.0, NaN, NaN, NaN, NaN, NaN,343.290,11.20,1021.69,73.30,NaN,304.0,NaN,12.1,NaN,340.1,NaN,10.2,NaN,NaN, NaN,NaN,66.0,NaN,NaN,NaN,2,9.2,002014,   NaN,58.8,     NaN,      NaN,NaN,5.5,NaN,12.991, NaN,NaN,NaN, NaN, NaN

20040126,003405,1747867,36.862833,-123.603667,NaN,12.974,32.543,38.353,  NaN,0.0, NaN, NaN, NaN, NaN, NaN,342.872,11.30,1021.51,72.90,NaN,308.0,NaN,12.1,NaN,352.0,NaN,10.8,NaN,NaN, NaN,NaN,60.0,NaN,NaN,NaN,2,9.3,002044,   NaN,57.3,     NaN,      NaN,NaN,5.4,NaN,12.977, NaN,NaN,NaN, NaN, NaN

20040126,003435,1747897,36.863333,-123.602333,NaN,12.955,32.540,38.333,  NaN,0.0, NaN, NaN, NaN, NaN, NaN,342.741,11.20,1021.57,73.40,NaN,306.0,NaN,10.6,NaN,349.1,NaN,8.5,NaN,NaN, NaN,NaN,66.0,NaN,NaN,NaN,2,9.6,002074,   NaN,61.5,     NaN,      NaN,NaN,5.6,NaN,12.959, NaN,NaN,NaN, NaN, NaN

20040126,003505,1747927,36.864000,-123.600833,NaN,12.922,32.536,38.298,  NaN,0.0, NaN, NaN, NaN, NaN, NaN,342.417,11.30,1021.43,73.70,NaN,310.0,NaN,14.8,NaN,348.1,NaN,12.7,NaN,NaN, NaN,NaN,63.0,NaN,NaN,NaN,2,9.3,002104,   NaN,58.6,     NaN,      NaN,NaN,5.5,NaN,12.925, NaN,NaN,NaN, NaN, NaN

20040126,003535,1747957,36.864500,-123.599333,NaN,12.891,32.530,38.264,  NaN,0.0, NaN, NaN, NaN, NaN, NaN,342.270,11.20,1021.61,72.20,NaN,311.0,NaN,13.7,NaN,343.6,NaN,10.8,NaN,NaN, NaN,NaN,60.0,NaN,NaN,NaN,2,9.3,002134,   NaN,56.8,     NaN,      NaN,NaN,5.4,NaN,12.894, NaN,NaN,NaN, NaN, NaN

20040126,003605,1747987,36.865167,-123.598000,NaN,12.881,32.525,38.250,  NaN,0.0, NaN, NaN, NaN, NaN, NaN,342.430,11.20,1021.71,70.80,NaN,295.0,NaN,15.0,NaN,333.8,NaN,12.9,NaN,NaN, NaN,NaN,63.0,NaN,NaN,NaN,2,9.2,002164,   NaN,56.6,     NaN,      NaN,NaN,5.2,NaN,12.884, NaN,NaN,NaN, NaN, NaN

20040126,003635,1748017,36.865667,-123.596667,NaN,12.887,32.521,38.251,  NaN,0.0, NaN, NaN, NaN, NaN, NaN,342.833,11.20,1021.46,71.90,NaN,304.0,NaN,14.3,NaN,342.1,NaN,12.4,NaN,NaN, NaN,NaN,59.0,NaN,NaN,NaN,2,9.1,002194,   NaN,58.8,     NaN,      NaN,NaN,5.4,NaN,12.890, NaN,NaN,NaN, NaN, NaN

20040126,003705,1748047,36.866333,-123.595167,NaN,12.889,32.518,38.249,  NaN,0.0, NaN, NaN, NaN, NaN, NaN,343.094,11.20,1021.69,70.90,NaN,301.0,NaN,13.2,NaN,341.6,NaN,12.2,NaN,NaN, NaN,NaN,61.0,NaN,NaN,NaN,2,9.4,002224,   NaN,56.3,     NaN,      NaN,NaN,5.4,NaN,12.892, NaN,NaN,NaN, NaN, NaN

20040126,003735,1748077,36.867000,-123.593833,NaN,12.886,32.515,38.244,  NaN,0.0, NaN, NaN, NaN, NaN, NaN,343.278,11.20,1021.68,72.20,NaN,297.0,NaN,14.4,NaN,336.1,NaN,12.0,NaN,NaN, NaN,NaN,63.0,NaN,NaN,NaN,2,9.4,002254,   NaN,59.6,     NaN,      NaN,NaN,5.5,NaN,12.889, NaN,NaN,NaN, NaN, NaN

20040126,003805,1748107,36.867500,-123.592333,NaN,12.876,32.511,38.230,  NaN,0.0, NaN, NaN, NaN, NaN, NaN,343.393,11.20,1021.65,73.70,NaN,300.0,NaN,13.9,NaN,331.1,NaN,10.8,NaN,NaN, NaN,NaN,65.0,NaN,NaN,NaN,2,9.7,002284,   NaN,55.8,     NaN,      NaN,NaN,5.5,NaN,12.879, NaN,NaN,NaN, NaN, NaN

20040126,003835,1748137,36.868167,-123.590833,NaN,12.874,32.512,38.229,  NaN,0.0, NaN, NaN, NaN, NaN, NaN,343.283,11.20,1021.63,71.80,NaN,294.0,NaN,14.1,NaN,330.0,NaN,12.4,NaN,NaN, NaN,NaN,64.0,NaN,NaN,NaN,2,9.4,002314,   NaN,58.1,     NaN,      NaN,NaN,5.5,NaN,12.877, NaN,NaN,NaN, NaN, NaN

20040126,003905,1748167,36.868667,-123.589500,NaN,12.887,32.516,38.246,  NaN,0.0, NaN, NaN, NaN, NaN, NaN,343.248,11.20,1021.75,71.80,NaN,305.0,NaN,12.7,NaN,337.1,NaN,11.5,NaN,NaN, NaN,NaN,61.0,NaN,NaN,NaN,2,9.6,002344,   NaN,58.5,     NaN,      NaN,NaN,5.6,NaN,12.891, NaN,NaN,NaN, NaN, NaN

20040126,003935,1748197,36.869333,-123.588000,NaN,12.869,32.517,38.230,  NaN,0.0, NaN, NaN, NaN, NaN, NaN,342.803,11.30,1021.78,72.90,NaN,299.0,NaN,12.1,NaN,54.0,NaN,7.4,NaN,NaN, NaN,NaN,62.0,NaN,NaN,NaN,2,9.9,002374,   NaN,58.8,     NaN,      NaN,NaN,5.4,NaN,12.872, NaN,NaN,NaN, NaN, NaN

20040126,004005,1748227,36.869833,-123.586500,NaN,12.862,32.516,38.222,  NaN,0.0, NaN, NaN, NaN, NaN, NaN,342.780,11.20,1021.56,71.30,NaN,301.0,NaN,14.9,NaN,341.0,NaN,12.3,NaN,NaN, NaN,NaN,63.0,NaN,NaN,NaN,2,9.4,002404,   NaN,61.0,     NaN,      NaN,NaN,5.4,NaN,12.865, NaN,NaN,NaN, NaN, NaN
